                ,  2.047,  2.194,  2.342,  2.490,  2.638,  2.785,  2.933,  3.081,  3.229,  3.376,  3.524,  3.672,  3.819,  3.967,  4.115,  4.263,  4.410,  4.558,  4.706,  4.853,  5.001,  5.149,  5.297,  5.444,  5.592,  5.740,  5.888,  6.035,  6.183,  6.331,  6.478,  6.626,  6.774,  6.922,  7.069,  7.217,  7.365,  7.512,  7.660,  7.808,  7.956,  8.103,  8.251,  8.399,  8.547,  8.694,  8.842,  8.990,  9.137,  9.285,  9.433,  9.581,  9.728,  9.876, 10.024, 10.171, 10.319, 10.467, 10.615, 10.762, 10.910, 11.058, 11.205, 11.353, 11.501, 11.649, 11.796, 11.944, 12.092, 12.240, 12.387, 12.535, 12.683, 12.830, 12.978, 13.126, 13.274, 13.421, 13.569, 13.717, 13.864, 14.012, 14.160, 14.308, 14.455, 14.603, 14.751, 14.899, 15.046, 15.194, 15.342, 15.489, 15.637, 15.785, 15.933, 16.080, 16.228, 16.376, 16.523, 16.671, 16.819, 16.967, 17.114, 17.262, 17.410, 17.557, 17.705, 17.853, 18.001, 18.148, 18.296, 18.444, 18.592, 18.739, 18.887, 19.035, 19.182, 19.330, 19.478, 19.626
2010/07/22 00:00,    8.3,   10.0,    8.8,    7.9,    6.2,    3.1,    2.0,    0.9,    0.4,   -0.0,   -1.0,   -1.3,   -1.8,   -2.9,   -3.6,   -4.1,   -3.1,   -3.7,   -3.4,   -6.7,   -7.2,   -6.8,   -6.9,   -5.5,   -4.7,   -5.5,   -6.2,   -6.6,   -7.7,   -7.9,   -8.6,   -8.6,   -7.6,   -8.6,   -8.6,   -8.4,   -7.8,   -7.1,   -6.7,   -7.5,   -8.1,   -9.1,  -10.2,  -12.2,  -13.2,  -13.7,  -13.7,  -13.9,  -15.6,  -17.6,  -19.7,  -19.7,  -17.9,  -18.9,  -21.1,  -22.6,  -20.0,  -20.7,  -21.9,  -21.8,  -21.8,  999.0,  999.0,  999.0,  999.0,  999.0,  999.0,  999.0,  999.0,  999.0,  999.0,  999.0,  999.0,  999.0,  999.0,  999.0,  999.0,  999.0,  999.0,  999.0,  999.0,  999.0,  999.0,  999.0,  999.0,  999.0,  -30.2,  999.0,  -34.5,  999.0,  999.0,  999.0,  999.0,  999.0,  999.0,  999.0,  999.0,  999.0,  -24.2,  -26.6,  999.0,  999.0,  999.0,  -26.0,  -29.8,  999.0,  999.0,  999.0,  999.0,  999.0,  999.0,  999.0,  999.0,  999.0,  999.0,  999.0,  999.0,  999.0,  999.0,  999.0
2010/07/22 00:10,    8.4,    9.4,    8.8,    7.9,    5.6,    2.7,    2.0,    0.9,   -0.2,   -0.8,   -1.7,   -1.4,   -2.4,   -2.9,   -3.4,   -3.4,   -2.8,   -2.9,   -3.0,   -6.3,   -6.4,   -6.9,   -7.4,   -6.7,   -5.4,   -6.2,   -6.2,   -6.6,   -7.7,   -7.8,   -8.6,   -9.1,   -7.6,   -8.3,   -8.3,   -7.9,   -7.9,   -7.0,   -7.3,   -6.9,   -7.7,   -9.1,  -10.8,  -11.8,  -12.2,  -13.1,  -12.4,  -13.1,  -14.9,  -17.0,  -19.4,  -19.2,  -17.5,  -18.2,  -20.1,  -21.6,  -19.3,  -20.0,  -21.1,  -21.3,  -21.8,  -21.8,  -22.5,  -22.1,  999.0,  999.0,  999.0,  999.0,  999.0,  999.0,  999.0,  999.0,  999.0,  999.0,  999.0,  999.0,  999.0,  999.0,  999.0,  999.0,  999.0,  999.0,  999.0,  999.0,  999.0,  -38.9,  -36.7,  -35.1,  -34.0,  -33.5,  999.0,  999.0,  999.0,  999.0,  999.0,  999.0,  999.0,  999.0,  -23.9,  -26.4,  999.0,  999.0,  999.0,  -25.8,  -29.6,  999.0,  999.0,  999.0,  999.0,  999.0,  999.0,  999.0,  999.0,  999.0,  999.0,  999.0,  999.0,  999.0,  999.0,  999.0
2010/07/22 00:20,    8.9,    9.5,    9.0,    8.2,    4.8,    2.2,    1.4,    0.1,   -0.7,   -1.1,   -2.4,   -2.5,   -3.5,   -3.4,   -3.5,   -2.9,   -2.6,   -2.7,   -3.6,   -5.2,   -5.2,   -7.0,   -7.5,   -7.8,   -6.0,   -6.6,   -7.0,   -7.1,   -7.9,   -8.4,   -9.1,   -9.0,   -7.6,   -8.2,   -8.0,   -7.6,   -8.0,   -7.2,   -7.4,   -7.3,   -8.2,   -9.6,  -10.3,  -11.1,  -11.6,  -11.6,  -11.2,  -12.9,  -14.8,  -17.3,  -18.4,  -18.3,  -16.8,  -17.7,  -19.5,  -20.4,  -19.4,  -19.6,  -20.2,  -20.8,  -21.2,  -21.2,  -21.2,  -21.1,  999.0,  999.0,  999.0,  999.0,  999.0,  999.0,  999.0,  999.0,  999.0,  999.0,  999.0,  999.0,  999.0,  999.0,  999.0,  999.0,  999.0,  999.0,  999.0,  999.0,  999.0,  999.0,  -35.6,  -33.8,  -31.5,  -32.2,  999.0,  999.0,  999.0,  999.0,  999.0,  999.0,  -26.3,  999.0,  -23.6,  -26.3,  999.0,  -22.1,  999.0,  -25.7,  -29.5,  999.0,  999.0,  -14.9,  999.0,  999.0,  999.0,  999.0,  999.0,  999.0,  999.0,  999.0,  999.0,  -11.0,  999.0,  999.0
2010/07/22 00:30,    9.4,    9.2,    9.3,    8.6,    4.6,    2.1,    1.2,    0.4,   -0.4,   -0.8,   -2.5,   -2.8,   -3.6,   -3.3,   -3.7,   -3.0,   -2.6,   -3.1,   -4.4,   -5.2,   -4.2,   -5.3,   -7.5,   -6.6,   -4.9,   -5.4,   -6.9,   -7.6,   -8.0,   -9.8,  -10.0,  999.0,   -7.6,   -7.6,   -7.9,   -7.1,   -7.3,   -7.0,   -7.3,   -7.8,   -8.6,   -9.8,  -10.1,  -10.8,  -10.9,  -11.5,  -11.4,  -13.1,  -16.3,  -18.2,  -18.1,  -17.8,  -17.4,  -18.1,  -20.1,  -20.0,  -19.9,  -19.5,  -19.5,  -20.5,  -20.2,  -20.1,  -20.2,  -20.1,  -22.0,  999.0,  999.0,  999.0,  999.0,  999.0,  999.0,  -28.8,  -29.1,  999.0,  -29.6,  999.0,  999.0,  999.0,  999.0,  999.0,  999.0,  999.0,  999.0,  999.0,  999.0,  -38.6,  999.0,  -34.2,  -30.8,  -31.6,  999.0,  999.0,  999.0,  999.0,  999.0,  999.0,  999.0,  999.0,  -23.1,  -25.5,  999.0,  999.0,  999.0,  -25.5,  -28.8,  999.0,  999.0,  999.0,  999.0,  999.0,  999.0,  999.0,  999.0,  999.0,  999.0,  999.0,  999.0,  999.0,  999.0,  999.0
2010/07/22 00:40,   10.2,    8.4,    7.4,    6.9,    5.6,    4.1,    2.2,    1.1,   -0.0,   -0.9,   -2.0,   -3.1,   -3.8,   -3.7,   -3.7,   -3.8,   -3.3,   -3.8,   -5.7,   -6.1,   -5.1,   -5.1,   -6.2,   -5.7,   -4.0,   -5.4,   -6.6,   -6.9,   -7.5,   -7.8,   -8.7,   -9.4,   -7.2,   -7.0,   -7.5,   -6.7,   -6.7,   -6.6,   -6.8,   -7.7,   -8.4,   -9.4,  -10.0,  -10.9,  -11.0,  -12.1,  -12.5,  -13.4,  -16.9,  -18.2,  -18.1,  -16.6,  -17.9,  -18.9,  -20.1,  -20.1,  -19.6,  -19.4,  -19.3,  -20.2,  -19.5,  -19.5,  -19.7,  -19.2,  -21.4,  -22.1,  999.0,  -23.0,  999.0,  999.0,  999.0,  -26.9,  -26.9,  999.0,  999.0,  999.0,  999.0,  999.0,  999.0,  999.0,  999.0,  999.0,  999.0,  999.0,  999.0,  999.0,  999.0,  999.0,  999.0,  -30.8,  -30.5,  999.0,  999.0,  999.0,  999.0,  999.0,  999.0,  999.0,  -23.4,  -25.5,  -25.9,  999.0,  999.0,  999.0,  -28.8,  999.0,  999.0,  999.0,  999.0,  999.0,  999.0,  999.0,  999.0,  999.0,  999.0,  999.0,  999.0,  999.0,  999.0,  999.0
2010/07/22 00:50,   11.9,    7.7,    5.9,    5.0,    4.6,    4.4,    3.2,    1.8,    0.5,   -0.3,   -1.9,   -2.9,   -3.6,   -3.9,   -4.0,   -4.3,   -3.8,   -4.5,   -6.4,   -7.1,   -5.8,   -5.6,   -6.2,   -5.5,   -4.8,   -5.9,   -6.9,   -7.1,   -7.6,   -7.6,   -8.4,   -9.5,   -7.5,   -7.2,   -7.2,   -7.0,   -6.3,   -6.6,   -7.1,   -7.9,   -8.5,   -9.5,  -10.8,  -11.5,  -12.2,  -12.6,  -13.3,  -13.7,  -16.6,  -17.4,  -17.8,  -16.8,  -18.4,  -19.1,  -20.1,  -19.4,  -19.2,  -19.1,  -18.9,  -19.4,  -18.7,  -19.2,  -19.8,  -20.0,  -20.9,  -22.8,  999.0,  -21.7,  -22.9,  999.0,  999.0,  999.0,  -27.6,  999.0,  999.0,  999.0,  999.0,  999.0,  999.0,  999.0,  999.0,  999.0,  999.0,  999.0,  999.0,  999.0,  999.0,  999.0,  999.0,  -29.5,  999.0,  999.0,  999.0,  999.0,  999.0,  999.0,  999.0,  -26.2,  -23.9,  -26.0,  999.0,  999.0,  999.0,  999.0,  999.0,  999.0,  -18.9,  999.0,  999.0,  999.0,  999.0,  999.0,  999.0,  999.0,  999.0,  999.0,  999.0,  999.0,  999.0,  999.0
2010/07/22 01:00,  999.0,    7.7,    5.9,    5.1,    4.7,    4.6,    3.6,    3.0,    1.2,    0.1,   -1.6,   -2.8,   -3.6,   -3.9,   -4.3,   -4.3,   -3.9,   -4.6,   -6.4,   -7.2,   -6.0,   -5.9,   -6.7,   -6.3,   -5.3,   -6.3,   -7.1,   -7.3,   -7.8,   -7.7,   -8.8,   -9.6,   -8.5,   -7.9,   -7.5,   -7.2,   -6.2,   -7.0,   -7.1,   -7.9,   -8.9,   -9.6,  -10.7,  -11.9,  -12.6,  -13.4,  -13.0,  -13.6,  -15.8,  -17.3,  -17.5,  -17.7,  -18.6,  -19.3,  -19.6,  -19.1,  -18.9,  -18.9,  -18.4,  -18.0,  -18.5,  -19.2,  -19.8,  -21.1,  -21.0,  -23.0,  -22.0,  -22.1,  -23.1,  -23.9,  999.0,  999.0,  -27.4,  -27.5,  999.0,  999.0,  -30.0,  999.0,  999.0,  999.0,  999.0,  999.0,  999.0,  999.0,  999.0,  999.0,  999.0,  999.0,  999.0,  999.0,  999.0,  999.0,  999.0,  999.0,  999.0,  999.0,  999.0,  -26.4,  -24.6,  -26.3,  -26.2,  999.0,  999.0,  999.0,  999.0,  999.0,  999.0,  999.0,  999.0,  999.0,  999.0,  999.0,  999.0,  999.0,  999.0,  999.0,  999.0,  999.0,  999.0,  999.0
2010/07/22 01:10,  999.0,  999.0,    7.0,    5.2,    5.5,    5.9,    5.0,    3.7,    2.6,    0.2,   -1.4,   -2.6,   -3.0,   -3.7,   -3.9,   -4.2,   -3.8,   -4.2,   -6.7,   -7.5,   -5.8,   -5.6,   -7.1,   -6.5,   -5.9,   -6.6,   -7.1,   -7.5,   -8.4,   -7.8,   -8.5,   -9.8,   -9.3,   -8.1,   -7.4,   -7.3,   -6.3,   -6.8,   -7.6,   -8.6,   -9.2,  -10.1,  -10.9,  -12.4,  -13.1,  -14.0,  -13.3,  -13.9,  -15.3,  -17.0,  -17.9,  -18.6,  -19.2,  -19.5,  -19.4,  -18.9,  -18.9,  -19.0,  -18.2,  -18.0,  -18.9,  -19.7,  -20.6,  -21.4,  -21.4,  -22.2,  -22.0,  -21.2,  -22.3,  -24.0,  -24.8,  -24.9,  -26.7,  -27.9,  -28.5,  -31.4,  999.0,  -31.3,  999.0,  999.0,  999.0,  999.0,  999.0,  999.0,  999.0,  999.0,  999.0,  -28.3,  999.0,  999.0,  999.0,  999.0,  999.0,  999.0,  999.0,  999.0,  -26.6,  -25.8,  -25.0,  -26.3,  -25.4,  999.0,  999.0,  999.0,  999.0,  999.0,  -23.1,  999.0,  999.0,  999.0,  999.0,  999.0,  999.0,  999.0,  999.0,  999.0,  999.0,  999.0,  999.0,  999.0
